Погода в Досанге

Россия / Астраханская область     46°54′08″N   47°54′52″E
темп.,
°C
ветер,
м/с
пор.,
м/с
влажн.,
%
обл.,
%
осадки,
мм/ч
давл.,
гПа
погр.,
м
27 ноября, сб
сб2701:00−2вюв48775 0.0 1028116
04:00−1вюв487377 0.0 1026119
07:000вюв488276 0.0 1025152
10:00+2вюв51078100 0.0 1025311
13:00+3вюв6108296 0.0 1024412
16:00+3вюв5108526 0.0 1023400
19:00+1вюв499026 0.0 1023206
22:00+1вюв49897 0.0 1023153
28 ноября, вс
вс2801:00+2юв4879100 0.0 1022164
04:00+2юв4876100 0.0 1021126
07:00+2юв5878100 0.0 1020124
10:00+3юв5975100 0.0 1020203
13:00+7юв5764100 0.0 1019290
16:00+7юв35669 0.0 1019117
19:00+5юв457395 0.0 102092
22:00+4юв4676100 0.0 102093
29 ноября, пн
пн2901:00+4юв4676100 0.0 1020114
04:00+4юв347719 0.0 102040
07:00+3вюв447398 0.0 102055
10:00+5юв4866100 0.0 1021175
13:00+8юв585144 0.0 1020306
16:00+9юв59535 0.0 1019275
19:00+5юв5116490 0.0 1019214
22:00+5юв6136624 0.0 1017257
30 ноября, вт
вт3001:00+5ююв6156672 0.0 1014300
04:00+6ююв9196764 0.0 1011354
07:00+7ююв92168100 0.0 1007468
10:00+9ююв71779100 0.0 1007498
13:00+11ю6979100 0.0 1007410
16:00+11ююв3480100 0.0 1004108
19:00+10ююз4688100 0.2 1006131
22:00+9юз448798 0.2 100456
1 декабря, ср
ср101:00+8ююз338888 0.0 100123
04:00+8вюв4590100 0.0 99760
07:00+8зюз5893100 0.1 998164
10:00+8ю51495100 3.8 998443
13:00+10з12187198 0.0 9991342
16:00+6зсз12167985 0.0 10031012
19:00+5зсз9156494 0.0 1006855
22:00+3зсз61265100 0.0 1009678